Wind_Speed
87 86 84 82 82 81 81 79 77 76 75 73 72 69 65 62 60 57 56 55 58 57 48 43 40 41 43 48 54 51 47 43 41 40 37 35 35 35 34 33 33 31 30
94 92 89 86 84 87 85 83 81 81 80 79 78 77 75 72 69 66 62 59 58 55 53 46 40 41 40 42 38 39 41 45 46 42 40 38 38 36 34 32 31 29 29
96 96 97 94 93 91 90 92 88 87 87 85 83 82 81 79 76 74 71 67 63 61 58 53 48 49 40 37 35 35 35 31 37 38 36 36 35 35 34 32 31 31 29
102 100 100 99 97 96 97 97 96 95 94 93 91 88 85 84 82 79 77 75 71 66 64 60 54 54 48 41 40 33 31 35 33 36 37 34 33 34 34 34 33 32 31
92 100 104 103 102 101 101 97 102 102 99 99 98 95 93 90 87 86 83 79 76 72 69 66 62 56 54 47 44 42 40 39 36 35 37 37 37 37 36 36 36 34 32
62 67 86 102 107 108 103 101 101 102 105 103 104 104 101 98 94 91 88 84 80 76 73 69 66 63 58 55 51 47 44 44 37 36 37 38 39 39 40 40 39 42 38
49 51 57 66 84 110 109 111 108 107 105 103 106 109 109 105 102 98 95 92 87 83 79 75 71 67 63 58 56 51 49 46 45 41 39 40 42 42 42 41 39 38 36
47 46 46 51 56 67 88 107 110 113 110 107 107 110 110 111 108 106 102 96 92 90 85 80 78 73 68 65 60 55 51 50 49 46 45 43 43 44 43 41 37 39 38
42 44 43 41 44 52 63 68 85 102 110 109 111 111 113 112 111 112 110 105 98 94 90 87 83 81 75 70 66 64 59 55 53 51 48 47 45 46 44 41 46 45 45
39 41 42 42 38 38 44 52 56 62 77 102 104 110 112 115 113 115 112 112 110 103 99 95 89 86 82 79 73 68 66 63 59 56 54 51 50 48 44 45 45 50 48
36 37 38 40 41 39 37 40 44 48 53 61 71 83 101 108 110 112 113 115 113 107 105 102 98 93 86 83 81 78 72 67 66 62 60 57 53 51 55 57 47 33 36
34 36 37 39 39 42 42 39 41 43 44 46 50 57 66 83 101 108 110 111 111 108 106 105 100 96 94 91 86 82 78 71 69 67 65 63 60 57 58 55 49 54 46
31 35 38 39 38 40 42 45 44 42 40 42 43 47 51 60 74 88 104 110 109 107 107 107 102 99 98 94 92 90 84 79 74 72 71 68 65 64 62 58 53 48 55
28 30 34 37 37 38 41 43 44 46 45 44 42 42 43 46 51 63 79 97 106 106 107 106 103 100 97 99 96 95 91 85 80 76 75 74 72 68 65 63 53 52 63
30 32 33 32 32 33 35 37 43 44 44 47 47 44 43 42 42 44 51 65 86 98 100 105 105 105 101 97 96 92 89 88 86 81 80 78 76 75 73 68 61 61 62
22 23 26 31 31 30 28 29 33 39 44 43 43 43 44 44 45 43 43 41 45 61 75 91 98 107 105 102 100 96 89 88 86 85 84 83 80 77 76 73 65 65 70
19 17 17 20 24 23 23 18 19 26 33 40 40 36 37 37 38 39 36 33 34 38 43 57 74 91 103 106 104 101 97 91 86 86 87 86 84 80 78 76 74 68 62
26 19 18 16 15 13 14 10 14 17 22 25 30 34 33 33 32 29 28 31 28 26 25 34 47 60 80 95 102 104 102 95 92 85 84 86 85 83 80 77 78 76 78
29 27 20 16 13 7 1 3 9 9 10 16 19 23 26 26 25 25 25 28 31 27 23 24 31 40 56 76 83 89 85 93 95 93 86 85 83 83 80 79 77 77 78
41 36 27 23 20 11 3 2 7 7 9 2 13 16 19 21 22 24 25 26 26 28 26 22 27 35 40 54 66 70 68 91 89 92 89 84 85 85 82 79 78 79 82
44 41 37 34 27 21 15 8 6 7 6 4 4 6 7 11 17 20 22 23 24 26 25 19 25 35 40 36 30 50 36 54 76 72 75 81 81 79 85 81 77 82 79
39 40 39 38 37 32 25 23 19 14 7 4 4 5 6 8 9 6 10 17 20 21 19 18 26 40 38 22 29 31 44 46 58 69 67 70 66 62 56 61 76 77 82
38 34 35 41 39 40 37 31 23 22 21 20 18 17 15 13 13 14 15 13 10 7 5 9 28 39 35 35 22 19 34 35 48 53 64 72 65 56 54 58 57 68 70
39 36 26 37 41 38 37 37 33 32 31 33 31 30 28 27 23 23 18 18 10 7 13 13 28 51 14 16 10 28 30 32 35 41 62 65 70 68 65 61 59 62 57
33 40 31 24 34 34 34 36 40 36 29 34 35 32 36 31 28 22 18 19 18 15 20 26 23 11 8 4 6 21 21 22 29 37 36 41 58 75 63 55 59 61 56
31 33 34 26 20 24 31 32 26 31 31 31 37 26 24 26 26 28 19 12 6 2 10 9 6 8 6 3 9 23 20 17 24 25 32 38 39 42 47 51 53 52 56
Wind_Direction
256 256 255 252 250 250 249 249 249 248 248 248 249 250 250 248 248 242 244 244 246 245 246 241 233 235 240 243 243 244 244 244 246 248 249 251 249 250 250 251 253 255 258
254 253 253 253 251 248 246 245 247 248 247 248 248 248 248 248 247 248 243 241 244 246 250 250 247 235 238 239 236 237 242 243 242 246 249 249 249 246 245 247 249 252 256
257 255 253 252 251 250 246 244 244 244 245 246 247 247 247 248 247 247 247 244 242 244 246 247 248 251 239 241 234 230 236 243 239 242 243 246 246 241 241 244 247 250 254
258 257 256 253 250 248 249 246 245 246 246 245 245 246 246 245 245 246 246 246 244 242 244 244 244 247 252 252 254 238 239 237 236 239 238 244 244 241 243 246 248 251 255
260 257 254 252 252 249 247 247 248 245 244 245 244 244 244 244 244 244 245 246 246 245 243 243 244 243 245 245 244 248 245 247 237 239 238 241 243 242 246 254 253 250 253
273 266 257 252 251 249 248 247 246 246 246 245 244 244 245 244 243 244 243 244 245 245 244 243 243 243 243 242 243 242 245 246 237 240 240 241 243 246 250 254 254 255 251
283 278 269 262 256 249 249 247 247 248 247 247 247 246 245 244 244 243 243 243 243 245 244 244 243 242 241 239 239 241 242 241 247 246 242 243 242 246 255 256 261 257 248
279 278 279 271 263 256 253 249 250 247 248 249 247 245 244 244 244 245 243 243 244 244 243 243 242 242 242 241 239 237 240 241 241 242 246 244 244 247 253 257 256 259 255
279 278 278 279 270 259 254 253 252 251 248 245 246 246 245 243 243 244 244 244 243 243 243 242 241 241 241 240 240 237 237 239 240 242 244 246 246 248 253 258 261 254 254
280 279 276 274 274 269 258 251 251 251 250 248 246 245 246 245 244 243 244 244 244 242 243 242 242 240 239 241 239 239 237 237 238 241 244 245 247 250 255 253 253 262 253
280 279 278 277 270 267 263 260 255 252 249 247 246 246 244 243 244 245 243 244 244 243 242 242 241 241 240 240 240 239 238 237 239 238 242 244 246 247 252 249 252 253 257
272 275 275 272 271 267 263 261 259 256 253 248 245 243 243 244 243 244 242 242 243 244 245 242 240 240 241 241 238 239 239 239 237 239 240 243 246 247 245 258 256 264 260
271 269 269 270 268 265 264 260 256 256 256 253 248 244 242 241 241 242 242 241 241 243 245 246 243 240 239 238 239 239 240 240 240 240 240 242 245 248 249 253 255 258 258
279 268 264 267 268 267 264 260 260 256 252 252 251 251 247 245 243 243 243 240 240 241 243 243 244 243 240 239 240 240 239 239 241 242 242 242 243 247 248 250 250 253 250
297 285 274 269 269 269 268 265 259 259 257 253 251 248 248 249 250 249 244 241 238 237 239 242 242 243 240 239 237 236 237 238 241 243 243 243 241 243 247 249 250 251 255
319 306 292 276 276 278 269 272 266 257 252 253 253 251 250 250 252 251 248 245 242 237 236 237 238 240 240 238 236 234 236 237 238 240 243 243 242 242 244 245 246 243 248
342 325 312 294 278 280 272 272 283 268 258 249 247 247 247 246 246 248 246 244 243 245 238 236 236 237 238 238 237 235 234 236 238 237 238 240 242 244 245 246 246 246 246
12 0 342 310 299 284 269 284 311 275 253 252 245 241 241 241 241 240 237 241 240 241 238 232 237 233 232 236 238 238 237 238 240 238 236 238 240 244 245 248 247 248 251
22 21 18 12 346 329 247 350 341 354 257 240 238 237 236 235 231 236 232 231 234 235 241 244 233 232 230 230 230 233 233 238 236 234 235 235 239 241 242 245 244 245 249
32 37 34 37 49 49 47 334 6 356 31 249 232 231 229 228 227 228 229 230 229 231 237 253 233 223 218 216 216 216 224 238 233 234 234 234 236 239 238 241 245 248 250
35 37 42 47 51 58 58 43 23 20 66 60 113 144 189 213 228 236 236 235 229 226 234 249 222 205 180 166 191 204 206 223 222 223 226 228 233 239 240 241 243 247 248
34 39 44 53 56 57 57 61 65 61 72 103 136 166 163 139 160 186 242 221 222 230 238 228 211 195 175 176 175 192 210 219 217 218 213 214 218 228 239 242 244 248 248
25 33 48 57 58 60 60 60 65 71 75 82 92 100 105 110 120 131 124 122 140 121 155 192 188 188 175 177 184 187 184 187 201 222 215 218 223 229 227 231 233 250 247
28 29 47 57 62 65 70 69 65 74 83 91 92 94 99 99 101 105 105 95 65 117 97 180 176 176 185 246 178 191 192 198 190 212 218 228 223 219 235 240 241 235 248
27 31 41 59 59 60 63 59 55 60 81 92 80 88 90 102 86 90 102 111 108 96 122 166 188 194 216 114 235 209 193 201 208 218 215 211 216 234 241 233 231 240 245
31 44 51 50 46 49 53 54 52 56 57 68 68 68 83 82 77 100 96 72 126 216 192 113 123 167 140 134 179 205 216 225 225 223 221 223 220 219 228 234 238 238 246
Height
5674 5676 5680 5684 5688 5692 5694 5698 5702 5705 5709 5713 5717 5720 5725 5731 5735 5739 5745 5749 5750 5753 5756 5761 5766 5770 5775 5778 5781 5785 5788 5792 5796 5799 5800 5802 5805 5807 5808 5810 5812 5815 5817
5648 5650 5653 5656 5663 5668 5672 5677 5681 5684 5690 5696 5700 5705 5709 5714 5720 5725 5731 5737 5741 5744 5749 5753 5755 5758 5765 5768 5772 5775 5779 5782 5787 5790 5791 5794 5796 5799 5801 5803 5805 5808 5810
5618 5622 5626 5631 5636 5641 5646 5653 5658 5663 5668 5674 5682 5687 5693 5698 5704 5709 5714 5722 5729 5734 5739 5744 5749 5750 5754 5758 5762 5766 5770 5773 5777 5781 5783 5786 5788 5791 5793 5795 5798 5800 5803
5588 5592 5597 5602 5608 5612 5620 5626 5632 5639 5646 5651 5658 5666 5673 5680 5686 5693 5699 5704 5712 5720 5726 5732 5739 5742 5746 5749 5752 5757 5761 5765 5768 5772 5775 5778 5781 5783 5786 5788 5790 5792 5795
5557 5560 5565 5573 5577 5583 5591 5599 5606 5611 5619 5627 5634 5642 5650 5659 5668 5674 5681 5688 5695 5703 5712 5719 5725 5731 5736 5741 5745 5748 5752 5756 5759 5764 5767 5770 5773 5775 5779 5781 5783 5784 5787
5533 5531 5534 5539 5545 5555 5564 5570 5577 5584 5593 5601 5609 5617 5627 5636 5646 5655 5663 5670 5678 5687 5695 5702 5710 5717 5724 5730 5735 5740 5743 5746 5750 5754 5758 5761 5764 5767 5769 5771 5774 5776 5779
5516 5513 5512 5514 5517 5523 5529 5538 5547 5555 5565 5576 5582 5594 5602 5612 5622 5632 5642 5651 5660 5669 5678 5686 5694 5702 5709 5717 5723 5729 5734 5738 5742 5745 5748 5751 5755 5758 5760 5763 5766 5768 5771
5502 5499 5496 5495 5497 5497 5501 5507 5514 5526 5535 5548 5555 5563 5577 5588 5599 5606 5617 5630 5642 5650 5659 5669 5677 5686 5693 5702 5710 5716 5722 5727 5732 5736 5739 5741 5745 5748 5751 5754 5757 5761 5764
5489 5485 5483 5481 5480 5480 5482 5487 5491 5495 5504 5518 5528 5536 5548 5561 5569 5579 5592 5605 5619 5629 5640 5649 5659 5669 5677 5687 5696 5703 5709 5716 5720 5725 5729 5733 5735 5739 5742 5744 5749 5751 5755
5476 5474 5471 5469 5468 5466 5467 5470 5473 5475 5478 5489 5497 5509 5518 5532 5542 5554 5566 5578 5592 5607 5617 5628 5640 5650 5661 5671 5681 5689 5696 5702 5708 5713 5718 5722 5726 5730 5735 5734 5738 5741 5744
5464 5462 5460 5457 5456 5456 5455 5457 5459 5460 5463 5468 5475 5482 5491 5504 5514 5527 5541 5552 5564 5580 5590 5604 5618 5631 5643 5654 5664 5672 5680 5688 5694 5700 5705 5711 5717 5721 5728 5725 5727 5731 5732
5451 5450 5448 5446 5445 5444 5444 5446 5447 5448 5450 5453 5458 5463 5469 5477 5489 5497 5511 5527 5539 5552 5565 5579 5597 5609 5622 5635 5645 5656 5664 5674 5681 5687 5692 5698 5705 5710 5712 5710 5717 5722 5724
5441 5439 5436 5434 5433 5433 5433 5434 5436 5438 5440 5442 5446 5450 5454 5459 5466 5472 5484 5501 5513 5532 5541 5554 5572 5588 5598 5611 5625 5637 5648 5658 5667 5674 5679 5685 5691 5696 5701 5705 5709 5709 5709
5431 5427 5424 5423 5422 5421 5421 5422 5423 5426 5430 5433 5436 5439 5442 5446 5451 5456 5464 5474 5491 5508 5516 5533 5546 5558 5575 5587 5602 5615 5630 5641 5650 5659 5665 5672 5677 5682 5686 5692 5698 5702 5701
5423 5419 5416 5413 5412 5411 5410 5410 5411 5413 5416 5421 5425 5429 5434 5438 5442 5446 5450 5456 5468 5483 5495 5509 5520 5535 5546 5564 5581 5595 5611 5623 5632 5642 5649 5656 5664 5670 5673 5679 5685 5687 5691
5415 5411 5408 5405 5403 5402 5402 5402 5401 5402 5404 5408 5411 5416 5420 5426 5431 5435 5440 5446 5451 5458 5474 5482 5491 5506 5524 5540 5558 5575 5592 5602 5613 5624 5632 5639 5648 5655 5658 5666 5671 5675 5675
5412 5406 5402 5399 5397 5395 5395 5396 5395 5394 5395 5398 5403 5407 5411 5416 5421 5426 5432 5437 5441 5445 5453 5459 5468 5482 5496 5516 5536 5554 5570 5584 5594 5606 5614 5624 5633 5640 5645 5651 5656 5661 5664
5411 5406 5401 5396 5394 5390 5391 5393 5391 5388 5388 5391 5396 5400 5405 5409 5414 5420 5426 5430 5435 5439 5445 5450 5450 5459 5471 5492 5516 5535 5545 5564 5577 5587 5601 5607 5618 5625 5631 5637 5642 5647 5649
5416 5409 5403 5398 5393 5389 5391 5392 5391 5387 5386 5389 5392 5396 5401 5405 5411 5415 5420 5424 5429 5434 5439 5442 5445 5448 5457 5476 5496 5512 5520 5543 5555 5567 5584 5593 5601 5609 5616 5622 5627 5630 5634
5425 5416 5407 5403 5397 5394 5394 5394 5393 5390 5388 5387 5390 5394 5399 5403 5407 5411 5416 5420 5425 5430 5434 5437 5440 5443 5450 5464 5480 5497 5508 5530 5539 5553 5568 5579 5586 5593 5598 5606 5614 5618 5619
5436 5425 5415 5409 5403 5399 5397 5396 5395 5393 5392 5392 5392 5394 5397 5400 5403 5408 5412 5416 5421 5426 5430 5433 5435 5440 5448 5461 5479 5492 5507 5511 5525 5537 5551 5563 5575 5582 5588 5592 5597 5600 5607
5447 5437 5427 5418 5411 5406 5404 5402 5401 5398 5396 5394 5395 5396 5398 5400 5403 5406 5409 5412 5418 5423 5428 5430 5433 5439 5452 5461 5472 5480 5488 5497 5512 5521 5535 5549 5561 5563 5569 5578 5583 5589 5590
5453 5446 5439 5430 5422 5417 5414 5410 5407 5405 5403 5401 5399 5399 5400 5402 5404 5407 5410 5415 5420 5423 5430 5433 5438 5444 5456 5465 5468 5474 5482 5493 5506 5515 5528 5538 5545 5554 5555 5562 5564 5571 5573
5461 5453 5447 5441 5434 5428 5424 5420 5418 5416 5413 5410 5408 5407 5407 5408 5409 5412 5413 5418 5423 5428 5430 5436 5442 5446 5453 5458 5463 5470 5473 5481 5493 5505 5515 5521 5530 5539 5543 5547 5553 5557 5559
5468 5460 5453 5450 5445 5439 5435 5432 5429 5426 5423 5419 5418 5416 5415 5414 5415 5418 5420 5424 5429 5432 5437 5443 5448 5451 5454 5456 5459 5463 5469 5477 5485 5493 5501 5508 5516 5524 5530 5533 5537 5543 5546
5474 5469 5462 5457 5453 5449 5443 5441 5438 5437 5434 5433 5429 5428 5427 5426 5423 5426 5428 5433 5437 5439 5443 5446 5450 5452 5453 5457 5460 5463 5467 5472 5479 5484 5490 5499 5505 5513 5516 5520 5524 5529 5534